Showing default

GALS 1, 22963

Orbit data source: Space-Track

GALS 1, 22963 is a Commonwealth of Independent States-origin payload satellite in GEO that was launched on Thu, 20 Jan 1994 UTC via a PROTON-K/DM-2M launch vehicle from the Tyuratam Missile And Space Complex (TTMTR). Payload-class satellites include a variety of spacecraft equipped with specific instruments for various scientific and technological missions. These include communications satellites like Starlink; space stations such as the ISS; scientific satellites like the Hubble; Earth observation satellites from companies like Planet Labs, Umbra, and HawkEye 360; GPS; miniature CubeSats for education and research; and military/defense satellites.

Not visible in the next 10 days
Identifier
22963, 1994-002A
Orbit
GEO
Country
Flag of CISCIS
Related business
Manufacturer
NPO PM
Mission
Non-operational Defense Communications
Bus & Motor
GALS, Unknown motor
Mass
2,600 kg wet, ~2,400 kg dry
Launch date (UTC)
1994-01-20 (33 years ago)
Launch vehicle
PROTON-K/DM-2M
Launch site
Tyuratam Missile And Space Complex (TTMTR)
Object type
Payload
Rocket body
Debris
Shape & HBR
Cyl + 2 Pan, 5.0 m
Radar Cross Section
34.346 m², Large (>1 m²)

Expand to show TLE details & history
Last TLE update: 8 hours ago

TLE from 8 hours ago
0 GALS 1
1 22963U 94002A   26256.80716153 -.00000199  00000-0  00000+0 0  9998
2 22963  14.5187 353.1585 0013091 229.2256 142.6063  1.00357522119606
Epoch: 2026-09-13T19:22Z
TLE epoch observation values (Epoch: 2026-09-13T19:22:18.756Z)
Latitude
2.96489°
Longitude
81.32628°
Altitude
35,805.787 km
Speed
3.072 km/s
True Right ascension
00h 18m 48s
True Declination
2° 57' 43"
Sunlit
Object was in daylight at epoch
Visualization orbit readout
Latitude
Unknown
Longitude
Unknown
Altitude
Unknown
Speed
Unknown
Apparent Right ascension
Unknown
Apparent Declination
Unknown
Sunlit
N/A
Visualization observer readout
Local Sidereal Time
19:50:10
Azimuth
Unknown
Elevation
Unknown
Doppler factor
Unknown
Orbital elements
Apogee altitude
35,818.717 km
Perigee altitude
35,708.382 km
Semi-major axis
42,141.686 km
Eccentricity
0.00131
Inclination
14.5187°
RAAN
353.1585°
Arg. of periapsis
229.2256°
True anomaly
142.69728°
Mean anomaly
142.6063°
Eccentric anomaly
142.6518°
Mean motion
0.25089 °/min
Orbital period
1,434.92 mins
BSTAR
0
Loading maneuver chart data...
Computing Atmospheric mass density...
Loading historical data...
Loading historical data...
Loading historical data...
Loading historical data...
Loading historical data...
Loading historical data...
Loading historical data...

Documentation

Showing up to 5 results
|